sat.trackr.live / text

‹ back to catalog

2024-199BE

NORAD 61787 · 2024-199BE

PAYLOAD ACTIVE UNKNOWN

§ Identity

Operator
Country
TBD
Launch date
2024-11-04
Launch site
VOSTO
Launch vehicle
Mass (kg)
RCS (m²)

External: N2YO · Heavens-Above · Gunter

§ Orbital elements

Epoch: 2026-09-22T21:24:49.722624Z

Period
93.63 min
Inclination
97.2843°
Eccentricity
0.0011569
Mean motion
15.37979808 rev/d
Perigee alt
444.2 km
Apogee alt
460.0 km
Semi-major
6,830.2 km
B*
1.8949e-4
RAAN
134.1320°
Arg perigee
321.9464°
Mean anomaly
38.0963°
Rev number
15,210

§ Raw data

2024-199BE1 61787U 24199BE  26265.89224216  .00007011  00000+0  18949-3 0  99912 61787  97.2843 134.1320 0011569 321.9464  38.0963 15.37979808152104

JSON: /api/v1/satellites/61787 · /tle

For live sub-satellite position, see the globe view (requires WebGL).

§ Visibility from observer

Set your observer location to see the next 7 days of passes ≥ 10°. The values pass through the URL so the page stays shareable.

No JS? Fill the form by hand. The geolocation button needs JavaScript.